World > North America > United States > Florida   Village of North Palm Beach, FL

North Palm Beach, Florida Regional Weather

Lat: 26.82N, Lon: 80.08W
Wx Zone: FLZ168
Warning NWS WEATHER ALERT - (More Info. Click Here) Warning
Feedback

North Palm Beach, FL Regional Weather

Expires:201911122300;;178528
ASUS42 KTBW 122220
RWRFL 
FLORIDA REGIONAL WEATHER ROUNDUP
NATIONAL WEATHER SERVICE TAMPA BAY RUSKIN FL
500 PM EST TUE NOV 12 2019

NOTE: "FAIR" INDICATES FEW OR NO CLOUDS BELOW 12,000 FEET WITH NO
SIGNIFICANT WEATHER AND/OR OBSTRUCTIONS TO VISIBILITY.


FLZ067-068-071>074-168-172>174-122300-
SOUTHEAST FLORIDA 
  
CITY           SKY/WX    TMP DP  RH WIND       PRES   REMARKS
W PALM BEACH   MOCLDY    82  63  52 W6        29.89S                  
BOCA RATON     PTCLDY    81  68  65 SE5       29.89R                  
FT LAUDER-EXEC FAIR      81  68  64 SE7       29.88S                  
FT LAUDERDALE  MOCLDY    80  69  69 SE9       29.88R                  
POMPANO BEACH  FAIR      80  68  66 S12       29.89S                  
PEMBROKE PINES FAIR      83  66  56 E8        29.90R                  
OPA LOCKA      FAIR      83  64  52 SE5       29.89R                  
MIAMI          CLOUDY    81  66  60 SE8       29.89R                  
WEST KENDALL   FAIR      81  69  67 VRB6      29.89R                  
HOMESTEAD      FAIR      80  70  70 SE5       29.88S                  

STATION/POSITION SKY/WX   TEMP    WIND        PRES    WAVE   SWELL
                          AIR SEA DIR/SP/G            HT/PER HT/PER
                          (F)     (DEG/KT/KT) (MB)    (FT/S) (FT/S)
VIRGINIA KEY               80 80  150/  7/  8 1011.9R
LAKE WORTH                 80 82  170/  8/ 10 1013.2R
FOWEY ROCKS                80 82  160/  9/  9 1012.5R
SETTLEMENT POINT           80     210

SKY/WX - Weather  TMP - Temperature  DP - Dew Point  RH - Relative Humidity
WIND - Wind Direction/Speed PRES - Barometric Pressure VSB - Visibility
WCI - Wind Chill Index E13G22 Wind - East Wind 13 mph/Gusts of 22 mph